Regional Weather Roundup
Issued by NWS

Home | Current Version | Previous Version | Graphics & Text | Print | Product List | Glossary On
Versions: 1 2 3 4 5 6 7 8 9 10 11 12 13 14 15 16 17 18 19 20 21 22 23 24 25 26 27 28 29 30 31 32 33 34 35 36 37 38 39 40 41 42 43 44 45 46 47 48 49 50
000
ASUS43 KBIS 160459
RWRND

NORTH DAKOTA REGIONAL WEATHER ROUNDUP
NATIONAL WEATHER SERVICE BISMARCK ND
1200 AM CDT WED APR 16 2014

NOTE: "FAIR" INDICATES FEW OR NO CLOUDS BELOW 12,000 FEET WITH NO
SIGNIFICANT WEATHER AND/OR OBSTRUCTIONS TO VISIBILITY.


NDZ001>003-009>011-017-160600-
NORTHWEST NORTH DAKOTA

CITY           SKY/WX    TMP DP  RH WIND       PRES   REMARKS
WILLISTON        N/A    N/A N/A N/A MISG      29.74R
MINOT          LGT SNOW  25  22  88 E20G26    29.85R VSB 1   WCI  11
MINOT AFB      LGT SNOW  25  25 100 E22       29.86R FOG     WCI  10
$$

NDZ018>021-031>035-040>046-160600-
SOUTHWEST NORTH DAKOTA

CITY           SKY/WX    TMP DP  RH WIND       PRES   REMARKS
BISMARCK       MOCLDY    29  19  66 E20       29.77S WCI  16
DICKINSON      CLOUDY    34  20  56 NE9       29.65R
GARRISON         N/A     28  21  75 E24G30    29.79R WCI  14
HETTINGER ARPT MOCLDY    37  22  54 E8        29.64S
$$

NDZ004>008-012>016-024-026-027-054-160600-
NORTHEAST NORTH DAKOTA

CITY           SKY/WX    TMP DP  RH WIND       PRES   REMARKS
GRAND FORKS    CLOUDY    30  13  49 E15       29.97F WCI  19
DEVILS LAKE    CLOUDY    27  16  63 E20G26    29.94S WCI  13
$$

NDZ022-023-025-028>030-036>039-047>053-160600-
SOUTHEAST NORTH DAKOTA

CITY           SKY/WX    TMP DP  RH WIND       PRES   REMARKS
FARGO          CLOUDY    33  14  45 E9        29.96F
$$




USA.gov is the U.S. government's official web portal to all federal, state and local government web resources and services.